Погода в Бекане

Россия / Республика Северная Осетия — Алания     43°15′47″N   44°15′51″E
темп.,
°C
ветер,
м/с
пор.,
м/с
влажн.,
%
обл.,
%
осадки,
мм/ч
давл.,
гПа
погр.,
м
4 декабря, сб
сб400:00+3зюз11601 0.0 101910
03:00+3юз11585 0.0 102010
06:00+3ююз11535 0.0 102110
09:00+6ююв11445 0.0 102020
12:00+11вюв11304 0.0 1017155
15:00+12вюв00360 0.0 101613
18:00+8вюв114497 0.0 101510
21:00+6ююв1149100 0.0 101410
5 декабря, вс
вс500:00+5вюв11505 0.0 101210
03:00+4ю11484 0.0 101210
06:00+5юз0044100 0.0 101110
09:00+6з1141100 0.0 101210
12:00+10сз223496 0.0 1012213
15:00+9ссз2243100 0.0 1013117
18:00+7св005080 0.0 101510
21:00+6зсз11545 0.0 101710
6 декабря, пн
пн600:00+5ююв11552 0.0 101710
03:00+4ююв11550 0.0 101910
06:00+4ююв11555 0.0 102010
09:00+6юв11510 0.0 102119
12:00+10в11375 0.0 1019272
15:00+11с11375 0.0 101950
18:00+7сз115014 0.0 102210
21:00+6ююв115449 0.0 102210
7 декабря, вт
вт700:00+5ююв11550 0.0 102210
03:00+5ююз01560 0.0 102210
06:00+4ю11590 0.0 102210
09:00+6ююв11565 0.0 102216
12:00+11в11430 0.0 1019229
15:00+12ссв11443 0.0 101751
18:00+8с11550 0.0 101710
21:00+6ссв00610 0.0 101510
8 декабря, ср
ср800:00+5с00660 0.0 101310
03:00+3ссз11740 0.0 101210
06:00+2ссз21862 0.0 101111
09:00+3ссз118510 0.0 101171
12:00+8с216399 0.0 1009194
15:00+9ссз22570 0.0 1007174
18:00+6зсз11740 0.0 100810
21:00+5сз11700 0.0 100910